RH
66 62 65 68 78 79 75 80 87 94 92 92 89 88 88 84 83 82 81 82 81 81 80 80 78 78 79
68 67 67 68 78 89 84 79 80 92 93 92 90 88 89 86 85 85 81 81 82 83 81 81 82 81 82
77 71 70 69 70 72 94 94 91 88 95 95 92 90 90 88 87 86 85 85 86 87 87 86 86 86 85
80 77 73 64 74 76 82 90 89 92 95 94 93 93 92 89 89 88 87 87 86 85 88 90 90 90 89
78 76 77 76 73 69 75 84 82 90 93 96 95 94 93 93 90 94 91 89 88 87 86 88 92 92 92
79 77 73 71 68 75 82 82 96 89 94 90 93 95 90 89 90 89 96 92 90 88 88 87 90 91 92
94 86 74 66 70 73 70 76 86 85 92 91 92 95 86 87 93 93 92 94 91 91 91 92 92 92 92
61 61 65 66 66 70 74 75 74 69 83 95 90 93 86 85 94 95 94 92 94 91 92 94 94 94 94
64 70 70 65 63 66 77 81 83 72 76 94 90 91 93 94 92 96 96 94 94 95 93 93 94 94 95
68 67 64 65 72 74 74 82 83 89 68 90 88 93 100 94 92 92 96 96 96 95 96 95 94 96 96
76 78 70 69 68 66 69 74 78 80 70 74 99 94 96 99 95 94 94 93 97 97 98 98 97 97 97
95 94 80 73 69 67 68 68 69 67 59 68 98 96 96 100 100 100 96 93 95 96 97 97 98 98 95
88 84 75 70 69 74 69 70 72 70 60 69 84 82 96 94 96 100 99 99 96 96 96 97 97 97 97
73 69 69 77 78 74 79 80 82 80 72 71 80 82 85 94 92 100 100 100 98 97 96 97 97 96 97
72 72 72 69 72 76 76 84 90 78 80 75 87 84 83 83 100 96 100 100 98 96 99 98 98 98 98
75 77 73 71 80 78 78 80 90 82 79 84 95 100 100 99 100 100 99 100 100 100 99 99 99 100 99
75 75 75 74 71 80 83 83 89 84 78 75 96 100 100 99 96 98 99 100 99 100 100 100 100 98 98
Wind_Speed
14 16 19 17 17 14 14 16 14 30 30 30 31 30 29 29 29 28 27 24 27 28 28 28 27 28 27
16 16 18 16 15 19 13 13 15 23 30 31 31 31 31 30 30 29 29 27 26 27 28 28 28 27 26
17 12 15 13 15 15 13 12 13 18 29 31 31 31 31 31 30 30 29 27 25 26 25 26 27 26 27
12 14 13 14 13 12 14 11 14 13 16 21 26 28 30 32 31 31 30 30 29 29 28 27 26 26 27
12 14 13 12 12 11 13 13 17 11 10 11 13 14 17 26 25 29 30 31 32 32 30 29 27 27 27
13 15 19 14 13 13 11 13 13 11 13 13 12 13 14 15 27 30 27 31 32 31 30 29 28 28 27
18 16 18 15 14 15 17 13 14 14 13 17 12 15 14 14 24 29 30 32 33 31 31 30 30 27 28
20 19 17 16 17 16 17 19 16 16 12 18 14 16 14 14 24 28 31 32 32 33 33 31 30 30 29
34 33 33 33 27 14 14 14 17 17 13 10 11 13 13 12 13 28 30 32 32 32 32 32 31 31 23
19 22 26 23 32 24 14 17 15 14 19 8 15 11 5 11 13 12 15 29 31 31 31 32 31 15 15
17 15 14 15 14 15 17 17 16 20 15 7 9 8 6 5 10 13 13 14 14 17 29 29 30 26 16
13 13 14 14 14 15 17 18 17 24 21 15 11 16 13 3 5 4 10 11 11 12 13 19 28 30 31
16 16 16 15 17 15 17 19 21 23 21 22 17 20 17 13 9 5 8 7 11 12 12 13 14 12 14
17 17 16 15 14 14 15 14 15 17 20 24 23 20 18 15 12 7 7 8 10 11 11 10 10 11 12
16 17 17 16 17 14 16 14 16 18 15 16 19 20 16 18 9 10 10 5 9 11 10 10 8 11 11
16 17 18 17 16 16 16 17 17 17 17 14 12 11 3 5 14 12 9 10 6 10 9 10 8 4 8
18 18 18 17 22 17 17 17 18 17 17 14 14 15 17 19 7 10 13 9 9 8 9 6 6 10 9
Wind_Direction
275 286 284 282 297 233 223 215 206 211 205 206 205 202 200 201 203 204 206 205 205 207 209 212 210 211 215
278 285 283 291 283 291 220 216 216 209 210 206 207 205 201 201 201 203 204 204 204 209 212 212 213 214 216
284 285 286 286 288 285 258 217 217 216 208 209 208 207 206 203 202 203 205 203 203 205 209 211 213 212 216
276 281 277 283 284 275 288 233 230 214 209 210 210 213 209 206 204 204 202 204 205 211 206 208 210 211 214
261 272 275 286 272 282 273 288 235 229 204 206 208 213 214 215 212 208 205 205 209 212 213 210 211 212 213
260 258 269 271 277 294 299 265 271 202 207 216 198 208 212 211 212 212 209 209 212 211 212 213 212 213 213
265 257 265 266 274 277 278 282 287 305 250 217 200 212 210 210 208 209 208 212 214 211 210 211 214 215 213
263 264 260 267 265 270 276 284 276 272 273 275 191 212 204 207 200 205 210 213 214 214 213 213 214 215 214
264 261 257 259 258 265 261 267 274 273 269 294 209 196 200 202 204 201 205 213 216 216 217 215 214 214 219
262 261 261 257 254 247 253 256 267 274 251 242 271 180 199 201 204 201 206 212 213 216 215 215 214 214 223
260 255 251 248 246 240 238 242 249 254 256 259 298 216 180 158 196 204 198 201 207 213 215 212 210 208 220
256 252 249 245 244 241 237 242 244 248 259 250 258 266 200 157 181 181 204 202 198 209 208 212 213 209 215
259 254 249 248 247 247 242 240 245 250 252 239 242 249 276 206 193 174 167 209 196 200 204 202 201 203 211
256 256 253 249 243 238 242 238 242 249 243 250 231 236 240 264 200 162 173 177 189 198 199 202 200 200 204
258 256 250 246 242 237 236 236 236 244 244 240 233 230 234 236 231 189 184 170 186 190 183 199 205 195 197
254 252 249 246 239 234 232 231 235 236 238 250 220 213 188 252 255 195 185 190 173 170 187 196 202 205 193
252 249 247 242 244 233 229 227 231 230 234 231 251 209 217 222 219 260 187 178 164 166 184 181 191 194 182